Le nostre stazioni meteo in Italia

Pubblicità
Il mio iltempo24.it
Olbia/Costa Smeralda, Italia (16531): Temperatura & dewpoint: 09.11.2018 08:00:00 - 15.11.2018 08:00:00 (CET)Olbia/Costa Smeralda, Italia (16531): velocità del vento: 09.11.2018 08:00:00 - 15.11.2018 08:00:00 (CET)Olbia/Costa Smeralda, Italia (16531): direzione del vento: 09.11.2018 08:00:00 - 15.11.2018 08:00:00 (CET)Olbia/Costa Smeralda, Italia (16531): reduced air pressure: 09.11.2018 08:00:00 - 15.11.2018 08:00:00 (CET)Olbia/Costa Smeralda, Italia (16531): visibility: 09.11.2018 08:00:00 - 15.11.2018 08:00:00 (CET)Olbia/Costa Smeralda, Italia (16531): precipitazioni: 09.11.2018 08:00:00 - 15.11.2018 08:00:00 (CET)
Data & Tempo tt [°C] td [°C] ff [km/h] ff [kn] dd ppp [hPa] vv [km] rr [mm]
15.11.2018 08:00:00 11,0 11,0 2 1 - - 8 -
15.11.2018 07:00:00 11,4 11,4 2 1 N 1023,0 6 -
15.11.2018 06:00:00 12,0 12,0 2 1 S - 8 -
15.11.2018 05:00:00 12,0 12,0 2 1 - - 9 -
15.11.2018 04:00:00 11,7 11,7 4 2 - 1023,2 9 0,0
15.11.2018 03:00:00 11,0 11,0 2 1 - - 9 -
15.11.2018 02:00:00 11,0 11,0 4 2 - - 9 -
15.11.2018 01:00:00 10,9 10,9 4 2 - 1024,6 7 -
15.11.2018 00:00:00 11,0 11,0 4 2 - - 2,0 -
14.11.2018 23:00:00 11,0 11,0 2 1 - - 7 -
14.11.2018 22:00:00 11,3 11,3 5 3 SSO 1024,7 8 0,0
14.11.2018 21:00:00 13,0 13,0 2 1 - - 8 -
14.11.2018 20:00:00 13,0 13,0 2 1 S - 8 -
14.11.2018 19:00:00 13,9 13,7 2 1 - 1025,1 10 -
14.11.2018 18:00:00 16,0 15,0 4 2 ENE - 10 -
14.11.2018 17:00:00 18,0 16,0 8 4 E - 10 -
14.11.2018 16:00:00 18,6 16,0 11 6 NE 1025,1 10 0,0
14.11.2018 15:00:00 20,0 16,0 9 5 ENE - 10 -
14.11.2018 14:00:00 20,0 16,0 9 5 E - 10 -
14.11.2018 13:00:00 20,3 15,6 8 4 E 1026,0 10 -
14.11.2018 12:00:00 20,0 16,0 4 2 - - 10 -
14.11.2018 11:00:00 19,0 16,0 2 1 - - 10 -
14.11.2018 10:00:00 16,9 16,2 4 2 - 1027,7 9 0,0
14.11.2018 09:00:00 14,0 13,0 5 3 ONO - 10 -
14.11.2018 08:00:00 12,0 12,0 2 1 - - 10 -
14.11.2018 07:00:00 11,7 11,7 8 4 O 1027,1 8 -
14.11.2018 06:00:00 11,0 11,0 0 0 N - 8 -
14.11.2018 05:00:00 9,0 9,0 2 1 - - 8 -
14.11.2018 04:00:00 9,3 9,3 4 2 - 1027,0 7 0,0
14.11.2018 03:00:00 10,0 10,0 4 2 S - 8 -
14.11.2018 02:00:00 10,0 10,0 0 0 N - 10 -
14.11.2018 01:00:00 11,3 11,3 9 5 SO 1027,6 7 -
14.11.2018 00:00:00 12,0 12,0 4 2 - - 7 -
13.11.2018 23:00:00 12,0 12,0 2 1 - - 6 -
13.11.2018 22:00:00 11,9 11,9 2 1 - 1027,8 6 0,0
13.11.2018 21:00:00 14,0 14,0 8 4 SO - 10 -
13.11.2018 20:00:00 14,0 14,0 0 0 N - 10 -
13.11.2018 19:00:00 15,0 15,0 2 1 SSO 1027,2 20 -
13.11.2018 18:00:00 17,0 16,0 4 2 NO - 10 -
13.11.2018 17:00:00 20,0 18,0 4 2 NNE - 10 -
13.11.2018 16:00:00 21,1 18,2 9 5 E 1026,2 10 0,0
13.11.2018 15:00:00 22,0 18,0 15 8 E - 10 -
13.11.2018 14:00:00 23,0 18,0 11 6 E - 10 -
13.11.2018 13:00:00 21,7 16,5 8 4 NNO 1026,7 10 -
13.11.2018 12:00:00 21,0 15,0 2 1 - - 10 -
13.11.2018 11:00:00 19,0 15,0 2 1 - - 10 -
13.11.2018 10:00:00 16,1 14,6 2 1 - 1027,8 10 0,0
13.11.2018 09:00:00 12,0 12,0 2 1 - - 10 -
13.11.2018 08:00:00 9,0 9,0 2 1 - - 10 -
13.11.2018 07:00:00 8,2 8,2 4 2 OSO 1026,7 10 -
13.11.2018 06:00:00 9,0 9,0 5 3 SO - 10 -
13.11.2018 05:00:00 9,0 9,0 4 2 - - 10 -
13.11.2018 04:00:00 9,1 9,1 2 1 - 1026,3 10 0,0
13.11.2018 03:00:00 10,0 10,0 4 2 - - 10 -
13.11.2018 02:00:00 10,0 10,0 4 2 - - 10 -
13.11.2018 01:00:00 10,7 10,7 4 2 - 1026,6 10 -
13.11.2018 00:00:00 11,0 11,0 5 3 SO - 10 -
12.11.2018 23:00:00 11,0 11,0 2 1 - - 10 -
12.11.2018 22:00:00 11,6 11,6 2 1 - 1026,5 10 0,0
12.11.2018 21:00:00 13,0 13,0 4 2 - - 8 -
12.11.2018 20:00:00 14,0 13,0 5 3 SO - 10 -
12.11.2018 19:00:00 15,8 14,3 8 4 ESE 1025,5 10 -
12.11.2018 18:00:00 17,0 16,0 9 5 E - 10 -
12.11.2018 17:00:00 18,0 15,0 15 8 ESE - 10 -
12.11.2018 16:00:00 19,3 15,6 21 11 ESE 1024,5 10 0,0
12.11.2018 15:00:00 21,0 16,0 15 8 E - 10 -
12.11.2018 14:00:00 21,0 16,0 16 9 ESE - 10 -
12.11.2018 13:00:00 21,9 16,3 13 7 SE 1024,5 10 -
12.11.2018 12:00:00 20,0 16,0 4 2 - - 10 -
12.11.2018 11:00:00 18,0 15,0 2 1 - - 10 -
12.11.2018 10:00:00 15,8 15,1 2 1 - 1025,5 10 0,0
12.11.2018 09:00:00 12,0 12,0 5 3 OSO - 10 -
12.11.2018 08:00:00 9,0 9,0 4 2 - - 10 -
12.11.2018 07:00:00 9,0 9,0 2 1 O 1024,5 3,0 -
12.11.2018 06:00:00 9,0 9,0 5 3 OSO - 8 -
12.11.2018 05:00:00 11,0 11,0 5 3 SO - 0,6 -
12.11.2018 04:00:00 12,1 12,1 4 2 - 1023,9 0,4 0,0
12.11.2018 03:00:00 11,0 11,0 5 3 SO - 0,8 -
12.11.2018 02:00:00 12,0 12,0 2 1 - - 6 -
12.11.2018 01:00:00 11,5 11,5 4 2 - 1023,4 6 -
12.11.2018 00:00:00 12,0 12,0 8 4 SE - 6 -
11.11.2018 23:00:00 12,0 12,0 2 1 - - 6 -
11.11.2018 22:00:00 12,8 12,8 5 3 SSO 1022,9 10 0,0
11.11.2018 21:00:00 13,0 13,0 5 3 SSE - 10 -
11.11.2018 20:00:00 13,0 13,0 2 1 - - 10 -
11.11.2018 19:00:00 14,4 14,1 4 2 - 1022,0 10 -
11.11.2018 18:00:00 17,0 16,0 5 3 ENE - 10 -
11.11.2018 17:00:00 18,0 16,0 9 5 ENE - 10 -
11.11.2018 16:00:00 19,8 16,1 11 6 ENE 1020,7 10 0,0
11.11.2018 15:00:00 21,0 16,0 13 7 E - 10 -
11.11.2018 14:00:00 21,0 16,0 13 7 ENE - 10 -
11.11.2018 13:00:00 21,1 15,7 5 3 - 1020,4 10 -
11.11.2018 12:00:00 20,0 15,0 4 2 - - 10 -
11.11.2018 11:00:00 20,0 15,0 4 2 - - 10 -
11.11.2018 10:00:00 17,6 14,1 5 3 SO 1020,2 10 0,0
11.11.2018 09:00:00 14,0 14,0 4 2 - - 10 -
11.11.2018 08:00:00 12,0 12,0 2 1 - - 10 -
11.11.2018 07:00:00 12,1 12,1 2 1 N 1018,8 21 -
11.11.2018 06:00:00 12,0 12,0 2 1 - - 10 -
11.11.2018 05:00:00 12,0 12,0 4 2 - - 10 -
11.11.2018 04:00:00 11,6 11,6 5 3 SSO 1018,0 10 0,0
11.11.2018 03:00:00 12,0 12,0 5 3 O - 10 -
11.11.2018 02:00:00 12,0 12,0 4 2 - - 10 -
11.11.2018 01:00:00 13,0 13,0 5 3 OSO 1017,6 10 -
11.11.2018 00:00:00 14,0 14,0 4 2 - - 10 -
10.11.2018 23:00:00 13,0 13,0 4 2 SSO - 10 -
10.11.2018 22:00:00 14,2 14,2 5 3 OSO 1017,2 21 0,0
10.11.2018 21:00:00 14,0 14,0 4 2 - - 10 -
10.11.2018 20:00:00 14,0 14,0 5 3 SO - 10 -
10.11.2018 19:00:00 14,7 14,4 4 2 N 1016,0 20 -
10.11.2018 18:00:00 16,0 15,0 5 3 ONO - 10 -
10.11.2018 17:00:00 18,0 16,0 9 5 ENE - 10 -
10.11.2018 16:00:00 19,1 16,1 13 7 ENE 1014,6 10 0,0
10.11.2018 15:00:00 20,0 16,0 11 6 ENE - 10 -
10.11.2018 14:00:00 20,0 15,0 9 5 ENE - 10 -
10.11.2018 13:00:00 21,0 14,3 2 1 - 1014,9 10 -
10.11.2018 12:00:00 20,0 14,0 4 2 - - 10 -
10.11.2018 11:00:00 18,0 14,0 5 3 SO - 10 -
10.11.2018 10:00:00 17,4 13,9 8 4 SO 1016,0 10 0,0
10.11.2018 09:00:00 15,0 14,0 11 6 SO - 10 -
10.11.2018 08:00:00 14,0 13,0 9 5 SO - 10 -
10.11.2018 07:00:00 13,1 13,1 5 3 SSO 1015,2 10 -
10.11.2018 06:00:00 12,0 12,0 2 1 SSE - 10 -
10.11.2018 05:00:00 13,0 12,0 4 2 - - 10 -
10.11.2018 04:00:00 13,4 12,8 2 1 - 1015,3 10 0,0
10.11.2018 03:00:00 14,0 13,0 13 7 OSO - 10 -
10.11.2018 02:00:00 14,0 13,0 8 4 O - 10 -
10.11.2018 01:00:00 13,8 12,7 4 2 - 1016,1 10 -
10.11.2018 00:00:00 14,0 14,0 9 5 SO - 10 -
09.11.2018 23:00:00 13,0 13,0 5 3 SO - 10 -
09.11.2018 22:00:00 13,5 13,2 5 3 SO 1016,2 10 0,0
09.11.2018 21:00:00 14,0 13,0 5 3 SSO - 10 -
09.11.2018 20:00:00 14,0 13,0 8 4 O - 10 -
09.11.2018 19:00:00 15,8 13,9 2 1 - 1015,6 10 -
09.11.2018 18:00:00 17,0 14,0 5 3 S - 10 -
09.11.2018 17:00:00 18,0 14,0 9 5 E - 10 -
09.11.2018 16:00:00 19,1 14,8 13 7 ESE 1015,0 10 0,0
09.11.2018 15:00:00 20,0 16,0 18 10 ESE - 10 -
09.11.2018 14:00:00 21,0 15,0 22 12 SE - 10 -
09.11.2018 13:00:00 21,1 14,7 18 10 ESE 1015,4 10 -
09.11.2018 12:00:00 21,0 16,0 21 11 ESE - 10 -
09.11.2018 11:00:00 19,0 16,0 4 2 - - 10 -
09.11.2018 10:00:00 15,8 14,0 2 1 - 1017,3 10 0,0
09.11.2018 09:00:00 12,0 12,0 2 1 - - 10 -
09.11.2018 08:00:00 8,0 8,0 4 2 - - 10 -

tt = Temperatura
td = dewpoint
ff = velocità del vento
dd = direzione del vento
ppp = reduced air pressure
vv = visibility
rr = precipitazioni

Stazioni seguenti

WeatherPro
AMSI
MeteoEarth